FW9069 Weather Reports


time (UTC)temp
F
wind
direction
speed
knots
gust
knots
rain 1hr
in
rain 24hr
in
rain mn
in
humidity
%
barometer
mb
20260904080333 53 122 3.5 6.1 0.01 0.49 0.01 97 1010.3
20260904074827 53 127 3.5 5.2 0.00 0.48 0.00 97 1010.2
20260904073335 53 122 0.9 2.6 0.00 0.48 0.48 97 1010.2
20260904071827 53 125 1.7 4.3 0.00 0.48 0.48 97 1010.3
20260904070339 53 134 2.6 4.3 0.00 0.48 0.48 97 1010.1
20260904064824 53 117 0.9 2.6 0.00 0.48 0.48 97 1010.1
20260904063338 53 61 0.0 1.7 0.00 0.49 0.48 96 1010.1
20260904061829 53 61 0.9 2.6 0.00 0.49 0.48 96 1010.2
20260904060321 53 80 0.9 2.6 0.00 0.49 0.48 96 1010.2
20260904054834 53 116 0.9 2.6 0.00 0.49 0.48 96 1010.1
20260904053343 53 119 0.9 2.6 0.00 0.54 0.48 96 1010.2
20260904051855 53 80 0.0 5.2 0.00 0.54 0.48 96 1010.2
20260904050325 53 94 3.5 5.2 0.00 0.54 0.48 96 1010.3
20260904044836 53 121 2.6 7.0 0.00 0.54 0.48 96 1010.2
20260904043322 53 140 3.5 7.8 0.01 0.54 0.48 96 1010.3
20260904041834 53 102 3.5 4.3 0.01 0.54 0.48 96 1010.2
20260904040325 53 96 2.6 5.2 0.03 0.54 0.48 96 1010.2
20260904034837 53 115 2.6 7.0 0.03 0.54 0.48 96 1010.1
20260904033328 53 131 2.6 4.3 0.02 0.53 0.47 96 1010.0
20260904031819 54 137 3.5 5.2 0.03 0.53 0.47 96 1009.9
20260904030332 54 136 3.5 5.2 0.02 0.51 0.45 96 1010.0
20260904024821 54 102 2.6 10.4 0.04 0.51 0.45 96 1010.2
20260904023332 54 123 5.2 7.8 0.05 0.51 0.45 96 1010.0
20260904021844 54 141 5.2 8.7 0.05 0.50 0.44 95 1009.9
20260904020335 54 115 4.3 7.8 0.05 0.49 0.43 95 1010.0
20260904014823 54 131 3.5 7.0 0.03 0.47 0.41 94 1009.9
20260904013335 54 114 6.1 8.7 0.02 0.46 0.40 94 1010.0
20260904011828 55 129 2.6 9.6 0.01 0.45 0.39 93 1009.9
20260904010320 56 145 4.3 9.6 0.00 0.44 0.38 94 1010.0
20260904004830 57 67 4.3 8.7 0.00 0.44 0.38 95 1009.9
20260904003323 57 109 3.5 7.0 0.00 0.47 0.38 95 1009.9
20260904001832 57 125 3.5 7.8 0.00 0.47 0.38 95 1010.0
20260904000321 57 112 3.5 7.0 0.00 0.47 0.38 95 1010.1
20260903234833 57 111 3.5 7.8 0.01 0.47 0.38 96 1010.0
20260903233351 57 126 3.5 5.2 0.03 0.51 0.38 95 1010.0
20260903231822 56 165 1.7 7.0 0.03 0.51 0.38 96 1010.0
20260903230335 56 123 2.6 4.3 0.03 0.51 0.38 97 1010.0
20260903224825 54 166 0.9 7.0 0.03 0.50 0.37 95 1010.2
20260903223356 55 179 2.6 6.1 0.01 0.60 0.35 94 1010.3
20260903221825 55 185 2.6 7.0 0.02 0.60 0.35 95 1010.4
20260903220339 55 206 2.6 5.2 0.05 0.60 0.35 97 1010.4
20260903214833 53 184 2.6 7.8 0.06 0.59 0.34 96 1010.4
20260903213321 53 131 0.9 7.8 0.08 0.64 0.34 96 1010.7
20260903211854 52 179 0.9 7.0 0.10 0.63 0.33 96 1010.5
20260903210324 52 164 5.2 10.4 0.08 0.60 0.30 95 1010.5
20260903204834 53 173 2.6 7.0 0.08 0.58 0.28 95 1010.4
20260903203325 53 184 2.6 9.6 0.07 0.56 0.26 95 1010.6
20260903201837 54 167 5.2 11.3 0.04 0.53 0.23 94 1010.7
20260903200332 55 194 5.2 19.1 0.03 0.52 0.22 95 1010.6
20260903194823 55 163 3.5 11.3 0.01 0.50 0.20 95 1010.5
20260903193331 56 116 3.5 10.4 0.00 0.55 0.19 94 1010.5
20260903191849 56 176 3.5 10.4 0.00 0.55 0.19 94 1010.6
20260903190320 56 164 2.6 11.3 0.01 0.55 0.19 95 1010.6
20260903184833 56 112 6.1 13.0 0.01 0.55 0.19 96 1010.5
20260903183325 56 147 4.3 11.3 0.01 0.67 0.19 96 1010.5
20260903181846 55 119 5.2 10.4 0.01 0.67 0.19 96 1010.5
20260903180332 55 131 3.5 11.3 0.03 0.66 0.18 96 1010.6
20260903174823 56 119 6.1 11.3 0.09 0.66 0.18 97 1010.5
20260903173330 55 117 6.1 13.9 0.10 0.72 0.18 97 1010.5
20260903171823 54 130 4.3 11.3 0.10 0.72 0.18 96 1010.6
20260903170333 55 102 8.7 15.6 0.06 0.68 0.14 95 1010.5
20260903164823 55 98 6.1 13.9 0.01 0.63 0.09 94 1010.6
20260903163321 55 116 2.6 12.2 0.00 0.62 0.08 94 1010.6
20260903161830 55 123 2.6 11.3 0.00 0.62 0.08 96 1010.7
20260903160352 55 142 4.3 10.4 0.00 0.62 0.08 96 1010.5
20260903154823 54 159 4.3 9.6 0.00 0.62 0.08 96 1010.5
20260903153329 53 141 4.3 10.4 0.00 0.62 0.08 96 1010.5
20260903151823 53 144 6.1 10.4 0.00 0.62 0.08 97 1010.4
20260903150334 53 137 7.0 10.4 0.00 0.62 0.08 97 1010.4
20260903144846 53 115 2.6 9.6 0.01 0.62 0.08 97 1010.5
20260903143342 53 121 2.6 6.1 0.03 0.62 0.08 96 1010.3
20260903141850 53 129 4.3 7.8 0.05 0.62 0.08 96 1010.3
20260903140322 53 123 3.5 10.4 0.08 0.62 0.08 96 1010.3
20260903134833 53 119 4.3 12.2 0.07 0.61 0.07 96 1010.3
20260903131835 53 134 3.5 10.4 0.03 0.57 0.03 96 1010.3
20260903130329 53 121 4.3 7.8 0.00 0.54 0.00 96 1010.1
20260903124834 53 156 3.5 9.6 0.00 0.54 0.00 96 1010.1
20260903123345 53 192 1.7 9.6 0.00 0.54 0.00 96 1010.1
20260903121830 53 127 3.5 12.2 0.00 0.54 0.00 96 1010.2
20260903120322 53 127 5.2 13.0 0.00 0.54 0.00 96 1010.2
20260903114814 53 119 3.5 13.9 0.00 0.54 0.00 96 1010.2
20260903113327 53 151 6.1 11.3 0.00 0.54 0.00 96 1010.3
20260903111820 53 168 2.6 7.8 0.00 0.54 0.00 96 1010.3
20260903110330 53 121 1.7 7.8 0.00 0.54 0.00 96 1010.3
20260903104819 54 98 2.6 8.7 0.00 0.54 0.00 96 1010.4
20260903103327 54 133 4.3 7.8 0.00 0.54 0.00 97 1010.5
20260903100331 54 155 4.3 14.8 0.00 0.54 0.00 97 1010.6
20260903094821 54 111 6.1 10.4 0.00 0.54 0.00 97 1010.4
20260903093332 54 143 5.2 12.2 0.00 0.54 0.00 97 1010.5
20260903091826 54 194 3.5 9.6 0.00 0.54 0.00 97 1010.6
20260903090334 54 132 2.6 8.7 0.00 0.54 0.00 97 1010.6
20260903084828 54 85 4.3 8.7 0.00 0.54 0.00 97 1010.7
20260903083339 54 161 3.5 11.3 0.00 0.54 0.00 97 1010.6
20260903081831 54 171 0.9 12.2 0.00 0.54 0.00 97 1010.8